Showing default

FENGYUN 2H, 43491

Orbit data source: Space-Track

FENGYUN 2H, 43491 is a payload satellite owned by CNMSC (CN) in GEO that was launched on Tue, 05 Jun 2018 UTC via a CHANG ZHENG 3A launch vehicle from the Xichang Space Center, China (XSC). Payload-class satellites include a variety of spacecraft equipped with specific instruments for various scientific and technological missions. These include communications satellites like Starlink; space stations such as the ISS; scientific satellites like the Hubble; Earth observation satellites from companies like Planet Labs, Umbra, and HawkEye 360; GPS; miniature CubeSats for education and research; and military/defense satellites.

Not visible in the next 10 days
Identifier
43491, 2018-050A
Orbit
GEO
Country
Flag of CNCN / PRC
Related business
Manufacturer
SISE
Mission
Operational Civil Weather
Bus & Motor
FY-2, SHANXI AKM
Mass
1,390 kg wet, ~600 kg dry
Launch date (UTC)
2018-06-05 (8 years ago)
Launch vehicle
CHANG ZHENG 3A
Launch site
Xichang Space Center, China (XSC)
Object type
Payload
Rocket body
Debris
Shape & HBR
Cyl, 1.5 m
Radar Cross Section
6.680 m², Medium (>0.1 m² and < 1m²)

Expand to show TLE details & history
Last TLE update: 3 hours ago

TLE from 3 hours ago
0 FENGYUN 2H
1 43491U 18050A   25355.49430464 -.00000109  00000-0  00000+0 0  9999
2 43491   2.5723  81.2378 0002365 166.1034 100.2711  1.00271144 27650
Epoch: 2025-12-21T11:51Z
TLE epoch observation values (Epoch: 2025-12-21T11:51:47.920Z)
Latitude
-2.57834°
Longitude
79.37563°
Altitude
35,788.393 km
Speed
3.075 km/s
True Right ascension
23h 10m 31s
True Declination
-2° 34' 33"
Sunlit
Object was in daylight at epoch
Visualization orbit readout
Latitude
Unknown
Longitude
Unknown
Altitude
Unknown
Speed
Unknown
Apparent Right ascension
Unknown
Apparent Declination
Unknown
Sunlit
N/A
Visualization observer readout
Local Sidereal Time
14:21:04
Azimuth
Unknown
Elevation
Unknown
Doppler factor
Unknown
Orbital elements
Apogee altitude
35,797.814 km
Perigee altitude
35,777.87 km
Semi-major axis
42,165.979 km
Eccentricity
0.00024
Inclination
2.5723°
RAAN
81.2378°
Arg. of periapsis
166.1034°
True anomaly
100.29777°
Mean anomaly
100.2711°
Eccentric anomaly
100.28443°
Mean motion
0.25067 °/min
Orbital period
1,436.16 mins
BSTAR
0
Loading maneuver chart data...
Computing Atmospheric mass density...
Loading historical data...
Loading historical data...
Loading historical data...
Loading historical data...
Loading historical data...
Loading historical data...
Loading historical data...
Other satellites on launch #50 in the year 2018 (2018-06-05 UTC)

Documentation

Showing up to 5 results
|